Location: ??
(34.9170°N, 135.5016°E)
Time: 23:53:18
(UTC+00:00)

RS-15 - Pass Details

Date: 27 April 2021
Orbit: 1888 x 2157 km, 64.8° (Epoch: 12 May)

Event Time Altitude Azimuth Distance (km) Brightness Sun altitude
Rises 17:31:09 0° 330° (NNW) 5,561 10.6 -28.7°
Reaches altitude 10° 17:34:30 10° 331° (NNW) 4,585 10.1 -28.2°
Maximum altitude 17:46:39 88° 61° (ENE) 2,150 8.1 -26.4°
Drops below altitude 10° 17:59:01 10° 153° (SSE) 4,660 9.9 -24.5°
Sets 18:02:26 0° 153° (SSE) 5,653 10.3 -24.0°
